Theta_e
333 332 332 330 329 327 323 321 319 318 316 312 311 311 312 315 315 314 312 312 309 306 303 302 302 304 304 304 304 305 304 305
331 331 330 327 325 322 320 318 316 313 312 309 309 312 310 311 310 310 308 305 302 302 301 301 301 302 303 303 303 303 303 304
330 329 326 325 321 320 319 317 314 312 312 308 306 306 307 308 304 303 302 301 301 301 300 300 301 301 302 302 302 302 302 303
327 325 323 320 317 317 316 315 314 311 307 307 306 306 306 304 303 301 300 300 300 300 299 299 300 300 301 301 301 301 302 303
324 323 320 316 313 314 314 312 312 310 306 306 306 306 305 303 302 301 300 300 299 299 299 299 299 300 300 300 300 302 303 306
322 321 317 313 313 312 312 311 310 308 307 306 306 305 304 302 301 300 299 299 299 298 298 299 299 299 299 300 302 304 306 308
322 319 315 311 312 311 309 308 307 307 306 305 305 304 303 302 300 299 299 299 298 297 298 298 298 298 300 303 304 305 305 306
320 318 312 309 311 310 308 307 307 306 305 304 304 303 302 301 299 299 299 298 297 296 297 297 296 299 303 304 304 303 303 303
319 315 309 310 310 307 306 305 305 305 304 303 302 302 301 300 298 298 298 297 296 296 296 295 296 301 302 302 302 301 301 300
316 313 307 310 310 307 306 304 304 304 302 301 301 301 300 298 298 298 297 296 295 295 294 294 298 300 300 299 297 297 296 297
315 311 307 310 309 307 305 303 302 301 300 300 300 299 298 297 297 297 296 295 294 294 293 294 298 298 297 295 294 294 295 296
315 313 309 310 309 307 304 302 300 299 298 299 299 298 297 297 296 296 295 294 293 293 292 293 297 297 295 294 292 292 295 296
314 314 310 310 307 304 302 300 299 298 297 298 298 297 296 296 296 295 294 293 293 292 292 293 295 295 296 294 292 290 293 295
313 312 311 309 307 304 302 301 299 298 296 297 297 296 296 295 295 294 293 293 292 292 292 291 290 294 292 292 291 292 290 291
311 310 309 306 305 303 302 300 298 296 295 295 295 295 295 294 294 294 293 292 292 291 291 291 291 290 291 291 289 290 288 288
311 308 307 306 304 302 302 299 297 295 295 294 294 294 294 294 294 293 292 292 291 291 291 291 291 290 290 289 289 289 288 288
311 307 305 303 302 304 303 299 298 298 294 294 293 293 293 293 293 292 291 291 290 290 290 290 290 290 290 289 289 288 288 287
310 307 305 302 302 303 303 300 298 296 293 293 292 292 292 292 292 291 290 290 290 290 289 289 289 289 289 289 288 288 287 286
309 308 305 302 301 301 301 301 299 296 293 292 291 291 291 291 290 290 290 290 289 289 289 288 288 288 288 288 288 287 287 287
308 307 304 301 301 301 301 300 299 297 294 293 292 291 290 290 289 289 289 289 289 289 288 287 287 287 287 287 286 286 286 286
Wind_Speed
26 25 24 23 22 20 20 19 19 18 18 17 16 17 18 18 17 16 15 15 14 13 11 11 12 11 11 13 13 13 12 11
27 27 28 27 24 22 21 20 19 19 19 18 18 18 17 16 15 15 14 13 11 9 9 10 10 10 11 12 12 11 10 10
27 28 24 25 23 20 20 21 20 20 20 19 18 16 16 14 14 13 12 11 10 10 10 10 10 10 11 11 11 11 10 10
30 30 27 24 22 21 21 22 22 20 19 19 18 16 15 14 13 12 11 11 10 11 11 10 9 9 9 10 10 11 10 12
30 30 28 26 26 24 23 20 21 19 18 18 18 17 15 13 12 11 9 9 9 9 8 8 8 9 10 11 10 11 12 15
31 30 28 28 27 27 24 22 22 21 19 18 18 17 15 13 11 10 9 10 9 7 7 8 9 11 11 10 11 12 14 16
35 30 29 29 28 26 23 23 22 22 20 18 16 16 15 13 11 10 9 8 7 7 8 9 8 8 9 10 13 14 15 14
38 34 32 30 29 27 24 22 22 21 20 18 17 16 14 12 12 10 9 7 7 7 8 8 7 8 10 12 14 14 14 14
40 37 34 32 30 28 26 24 23 22 20 19 18 16 14 13 12 11 9 7 6 8 8 8 8 11 14 14 13 13 13 13
39 39 39 35 32 28 26 24 22 21 20 20 18 16 13 13 13 11 10 7 7 8 10 11 13 14 16 15 14 13 14 13
39 39 41 36 33 29 26 24 22 21 20 19 18 16 14 12 12 11 10 9 8 10 11 12 16 18 19 17 17 17 16 15
39 40 40 36 36 32 27 24 23 22 20 20 19 17 15 13 12 11 10 10 11 11 13 15 18 18 19 18 18 17 16 16
41 43 43 40 38 37 31 29 25 23 21 20 19 17 15 14 13 11 11 11 12 11 14 16 18 18 12 10 13 16 17 16
42 44 46 44 43 36 28 32 26 24 21 20 19 17 15 14 13 12 11 11 11 9 9 12 12 10 4 4 2 2 10 14
44 45 47 42 40 37 30 29 25 22 22 22 20 17 16 14 13 12 11 9 10 9 7 7 10 9 4 3 2 3 3 5
40 42 47 49 46 34 39 28 21 16 28 24 20 16 16 15 15 13 12 11 9 9 7 7 8 12 10 11 8 5 2 2
41 41 42 39 44 46 43 31 28 27 26 24 22 19 17 16 15 14 13 12 11 10 9 8 6 7 6 6 7 9 8 3
40 43 42 41 45 47 42 37 35 35 33 30 27 23 20 18 16 15 13 12 11 12 11 9 9 9 8 7 5 4 3 3
37 40 37 38 39 36 34 39 39 39 38 34 30 27 25 23 20 17 15 14 13 12 12 11 9 10 10 12 10 8 7 6
34 37 36 39 41 42 40 38 39 40 41 39 35 31 27 23 19 18 16 15 13 12 12 11 10 11 11 11 9 8 7 5
Wind_Direction
174 178 181 175 170 169 161 151 145 138 134 128 119 113 104 98 97 91 88 84 76 69 61 55 53 49 45 46 48 45 39 37
176 183 178 175 177 171 162 156 150 147 141 129 120 116 110 107 99 92 88 84 74 63 54 49 46 43 42 42 42 39 35 36
182 180 175 178 173 165 159 157 153 147 143 141 135 132 127 118 105 96 88 81 70 63 61 53 50 46 46 41 30 28 31 35
186 184 182 179 173 167 166 162 162 162 155 152 150 142 133 126 117 104 95 85 74 62 53 43 36 35 32 27 27 32 37 41
187 187 184 178 173 172 170 169 166 163 156 154 153 148 142 135 125 115 102 88 72 58 48 39 34 33 30 28 32 37 47 58
190 193 186 181 177 175 173 168 165 165 162 159 156 152 147 136 127 116 103 87 74 61 57 55 42 34 32 36 44 58 76 80
193 193 190 183 180 178 175 171 169 167 165 163 166 160 152 144 132 121 106 92 81 78 71 59 46 42 53 65 77 81 81 79
193 192 192 188 183 180 176 172 171 171 169 167 166 167 157 147 131 119 106 95 94 86 72 65 63 74 89 94 89 85 79 75
196 191 191 189 183 179 176 174 172 173 173 171 171 169 159 152 140 129 116 112 100 89 81 81 98 105 107 102 93 80 71 67
195 193 189 187 185 180 175 173 174 175 174 171 169 165 163 152 144 134 127 121 107 102 100 105 111 115 114 100 85 77 68 62
191 192 189 188 185 181 176 173 174 175 174 171 168 164 160 158 148 139 133 131 122 105 109 115 123 119 111 100 83 76 72 76
188 191 191 189 184 180 175 172 172 175 174 174 171 168 162 160 151 143 137 135 123 116 100 120 132 129 118 99 84 78 77 77
186 188 190 188 182 174 172 171 172 171 174 174 172 169 163 164 156 152 147 143 138 132 113 111 131 139 117 105 85 74 76 83
182 186 188 189 183 176 175 175 174 174 173 172 173 170 167 168 162 159 154 149 143 142 150 120 103 176 176 130 136 117 74 78
180 181 184 182 181 178 175 173 168 170 175 174 173 173 169 169 163 167 157 154 137 131 142 163 135 87 138 166 117 182 149 117
179 180 181 182 183 175 174 170 167 186 178 172 166 170 170 170 171 170 161 151 140 135 129 137 147 141 101 87 94 125 157 124
179 177 176 179 177 185 180 172 179 186 181 172 170 171 173 172 171 170 162 151 142 136 129 128 140 150 151 136 102 86 83 118
178 177 179 178 178 184 182 178 180 178 178 175 172 169 171 172 173 169 163 159 152 145 133 134 131 127 127 128 129 101 125 113
181 179 178 175 175 174 180 188 188 181 179 177 173 171 174 176 175 168 170 163 161 148 144 139 141 137 130 115 102 115 123 115
180 180 175 173 171 177 184 196 195 190 186 183 180 180 176 174 173 169 172 165 164 156 149 147 155 148 139 120 125 112 105 116